Location: Islay
(41.3172°N, 105.1346°W)
Time: 19:00:57
(UTC+00:00)

ACS3 Solar Sail - Pass Details

Date: 26 April 2026
Orbit: 894 x 947 km, 97.2° (Epoch: 12 May)

Event Time Altitude Azimuth Distance (km) Brightness Sun altitude
Rises 08:45:17 0° 5° (N) 3,561 5.7 -29.8°
Reaches altitude 10° 08:47:47 10° 359° (N) 2,623 4.7 -29.6°
Enters shadow 08:52:54 44° 301° (WNW) 1,261 2.3 -29.1°
